Location: Casilda
(33.0440°S, 61.1680°W)
Time: 15:07:45
(UTC-03:00)

ISS - Pass Details

Date: 19 January 2025
Orbit: 415 x 418 km, 51.6° (Epoch: 13 January)

Event Time Altitude Azimuth Distance (km) Brightness Sun altitude
Rises 14:20:09 0° 255° (WSW) 2,378 0.2 70.8°
Enters shadow 14:52:45 -51° 40° (NE) 10,461 2.8 64.9°
Exits shadow 15:28:43 -57° 198° (SSW) 11,163 3.0 57.8°
